Theta_e
326 330 333 328 332 321 318 319 320 323 321 321 322 323 334 346 348 350 349 347 346 347 347 347 350 352 351 351 351 355 354 354
324 328 329 330 322 324 316 322 323 322 321 324 322 322 322 343 348 350 350 347 345 346 347 347 349 352 353 352 352 354 355 354
321 327 329 327 326 322 321 317 321 323 324 321 321 321 322 338 345 349 349 347 343 346 347 347 348 351 355 355 354 355 357 356
322 320 323 329 323 320 322 319 318 321 325 326 323 323 322 323 346 346 346 346 345 347 347 347 348 350 354 357 356 356 357 357
322 318 319 321 328 321 316 317 320 323 324 323 323 325 327 325 329 343 344 346 348 348 347 347 347 349 353 357 358 357 357 357
322 322 321 322 323 323 322 322 321 322 324 325 324 327 324 324 327 333 345 349 348 348 347 348 347 348 352 353 358 358 358 357
315 318 322 325 326 327 323 322 324 323 324 322 324 331 329 328 328 337 348 349 349 350 349 348 348 348 351 352 356 358 358 358
315 326 328 328 328 328 324 324 322 321 323 321 328 330 332 333 336 339 348 351 351 351 350 350 349 348 350 351 354 358 359 359
320 325 330 333 329 329 324 323 324 324 323 331 334 343 342 328 330 335 344 350 352 351 350 350 350 349 349 350 352 356 358 359
319 324 335 327 324 327 335 333 331 337 336 341 348 347 346 346 338 340 340 337 334 342 347 351 351 350 349 350 351 352 355 359
321 327 329 327 324 324 328 332 326 330 343 347 345 346 346 343 347 344 341 340 340 341 338 348 352 352 351 350 351 352 352 354
315 329 335 325 323 327 329 332 324 330 341 343 338 351 345 342 349 351 344 340 338 338 344 342 343 353 353 352 352 352 352 354
321 331 327 322 321 324 333 331 323 325 328 333 343 341 340 340 342 349 350 348 349 353 348 341 341 345 353 354 355 355 354 354
324 328 332 321 321 321 319 319 318 322 325 325 324 325 334 339 339 341 345 349 355 359 358 358 351 350 357 356 356 356 357 358
319 323 318 321 320 317 317 317 320 318 320 322 322 321 321 336 336 336 338 342 346 352 354 356 356 357 356 357 361 358 357 358
314 316 313 319 317 315 314 316 319 318 316 320 320 319 318 320 335 335 335 338 342 345 352 352 353 354 355 355 357 361 361 358
311 310 312 315 313 312 312 314 317 318 318 320 317 316 316 316 321 334 335 337 340 343 347 350 350 350 349 350 352 355 359 365
310 308 307 308 310 310 311 312 317 317 317 317 316 315 320 320 322 333 335 337 339 342 347 349 349 348 348 349 352 353 355 361
310 309 308 307 308 308 309 312 316 316 316 317 317 318 321 324 329 332 333 333 335 338 344 347 346 347 349 349 351 350 351 348
Wind_Speed
26 20 20 10 19 11 6 2 3 5 5 4 11 8 14 26 22 27 28 24 26 25 35 37 39 42 44 43 42 41 43 40
22 19 18 21 8 10 4 7 5 5 6 10 10 13 10 24 27 29 27 26 22 23 33 40 41 45 44 43 45 42 41 40
1 19 29 7 15 6 6 6 7 3 11 7 12 10 13 20 28 29 27 27 25 23 35 42 40 39 41 41 41 38 39 40
14 8 2 20 9 11 9 11 3 5 10 4 14 15 16 14 25 30 30 31 26 26 31 35 36 36 39 39 40 42 44 41
6 5 6 5 15 13 6 5 11 11 11 1 7 9 17 27 24 28 30 30 27 23 22 27 35 36 37 38 42 41 39 37
6 4 8 4 9 13 17 9 10 14 10 9 13 17 8 16 14 18 30 29 25 23 22 27 36 37 38 37 38 39 38 37
18 24 21 20 6 19 14 14 15 12 7 10 11 12 6 7 9 16 25 29 27 25 23 21 32 35 34 36 37 39 37 37
11 12 15 11 7 7 18 15 7 8 9 6 6 11 7 7 13 17 24 28 29 28 25 22 30 34 35 36 38 39 39 39
6 9 7 2 10 7 14 8 13 6 9 5 9 9 12 6 14 10 13 26 26 26 25 23 34 37 35 39 36 37 37 35
5 9 7 7 20 14 20 19 21 14 10 13 15 14 17 16 11 17 14 12 8 9 10 19 25 29 28 29 35 36 33 33
2 4 1 13 16 15 4 13 20 17 10 17 16 24 16 16 13 7 8 7 8 14 15 23 30 32 32 31 32 31 32 34
4 2 5 11 24 21 8 14 21 19 18 10 3 13 4 10 14 11 8 7 8 17 23 24 11 26 27 29 29 32 33 35
1 4 5 20 29 14 9 3 12 13 15 17 15 6 1 11 16 14 14 14 16 23 18 14 15 15 18 19 26 35 33 34
5 5 4 19 13 13 10 6 12 13 10 13 12 15 13 14 15 16 16 17 22 20 22 25 18 19 18 11 5 20 19 30
4 3 4 4 6 13 16 13 5 6 7 7 13 14 15 11 13 12 13 17 21 17 17 25 28 24 22 17 13 3 8 24
3 6 9 8 9 15 16 17 15 12 6 5 8 10 11 12 11 11 11 13 16 18 14 14 19 20 18 16 16 14 6 7
4 5 5 7 9 13 20 18 16 12 12 8 8 7 8 8 9 10 13 18 22 17 14 13 15 16 15 14 13 13 12 8
4 9 7 16 8 13 16 19 16 13 12 12 10 10 11 10 8 11 14 20 18 18 14 12 14 14 15 15 14 12 11 7
10 9 11 17 20 15 14 17 11 15 7 7 8 7 7 5 12 17 18 18 16 16 12 7 9 9 13 9 12 12 11 10
Wind_Direction
217 218 192 205 214 176 130 255 168 223 260 272 247 203 181 193 198 202 199 203 202 194 195 193 187 189 190 191 195 194 198 200
236 209 227 210 165 188 179 206 238 269 222 225 233 235 175 192 191 203 199 203 204 196 192 195 192 191 190 192 193 195 199 201
178 210 213 209 201 198 157 158 208 236 251 206 224 229 227 183 191 200 193 200 200 199 197 195 194 190 190 191 193 195 197 202
232 242 264 217 196 186 202 211 195 171 259 202 210 213 226 194 188 194 194 201 199 193 194 192 192 189 190 190 191 195 198 201
309 31 283 216 211 197 148 135 206 213 248 349 270 233 238 223 177 192 195 197 197 183 188 188 192 192 190 190 194 197 198 200
274 272 336 219 249 196 189 200 200 221 260 293 288 291 264 187 179 164 187 186 187 184 187 188 193 193 191 192 194 195 196 198
266 273 270 256 251 205 198 193 201 216 220 257 271 283 219 160 145 150 176 181 182 183 185 188 191 194 192 194 191 192 194 198
292 242 215 230 242 273 208 200 181 158 227 218 290 292 92 104 137 161 173 181 184 184 182 184 188 191 189 191 193 192 196 200
271 325 151 122 352 311 204 189 198 139 232 189 56 341 19 34 101 120 161 180 182 182 182 185 188 188 188 190 192 194 199 201
270 307 148 124 37 26 63 38 21 348 330 117 116 75 44 28 45 85 85 96 109 153 158 173 183 187 191 188 192 197 198 201
285 280 204 19 0 338 7 43 10 341 137 126 120 73 34 16 19 20 82 87 90 97 137 167 175 180 183 186 194 201 203 204
319 357 49 346 336 328 142 36 354 3 26 22 316 83 10 354 18 13 32 53 70 80 94 94 147 188 181 190 194 203 206 208
173 64 44 359 342 28 58 23 353 359 30 41 58 74 169 39 34 33 38 36 47 63 67 77 95 142 178 190 201 207 207 208
348 66 60 360 4 51 343 28 22 11 17 37 43 43 35 36 34 30 30 28 32 62 60 58 70 87 83 85 222 224 211 216
27 77 283 34 353 359 359 7 348 8 355 35 38 35 33 19 21 26 32 28 30 41 59 66 64 63 54 28 22 78 188 219
11 342 2 61 14 350 353 338 356 351 346 37 54 33 31 20 11 19 27 32 27 33 36 46 63 58 48 28 19 21 358 267
318 6 18 84 35 351 332 332 342 2 15 35 42 16 29 11 4 3 8 16 21 20 15 21 34 40 36 23 10 360 349 320
272 308 301 274 302 332 322 318 334 345 2 358 15 22 16 22 4 9 5 6 11 7 9 2 10 16 15 10 3 357 343 329
284 264 241 269 282 272 266 281 332 331 325 356 9 39 34 20 6 4 1 354 343 331 345 346 354 3 6 359 350 339 337 326